Find Starlink 30203

NORAD ID: 57498 Int'l Des: 2023-113 Owner: SPXS Country: US Constellation: starlink operational
LEOCIRCULAR

Live Position

Loading 3D Globe...

About Starlink 30203

Description loading...

Upcoming Passes

Passes for default location (London). Set your location on the main map for personalized predictions.

Altitude History

Loading altitude history...

Two-Line Element Set

1 57498U 23113D 26129.99385517 -.00000753 00000-0 -17848-4 0 9999
2 57498 43.0074 29.6187 0001419 260.9750 99.0941 15.27571342153075
Epoch: May 9, 2026 • Age: 9 hours

Current Status

Altitude 488.6 km
Velocity 7.62 km/s
Sub-Earth Point -24.71°S, 6.69°W
Launch Date Aug 7, 2023
Age 2.7 years
Type internet

Technical Details

Classification Payload
Mass 730.00 kg
Dry Mass 700.00 kg
Total Mass 730.00 kg
Length 0.30 m
Diameter 4.10 m
Span 29.00 m
Shape Box + pan
Manufacturer SPXS
Bus Type Starlink V2M
Phase Status In Orbit
Owner/State SPXS/US

Most Searched